Orbital Elements at Epoch 2459000.5 (2020-May-31.0) TDB
Reference: JPL 17 (heliocentric ecliptic J2000)
Element | Value | Uncertainty (1-sigma) | Units |
e | .05233375245304429 | 6.686e-08 | |
a | 2.733489499694898 | 2.7149e-08 | au |
q | 2.590435736884869 | 1.8774e-07 | au |
i | 15.66727855103682 | 6.8079e-06 | deg |
node | 66.73876849595628 | 2.3769e-05 | deg |
peri | 333.3984061724966 | 6.073e-05 | deg |
M | 169.0210784044825 | 5.8848e-05 | deg |
tp | 2458225.480001117492 (2018-Apr-16.98000112) | 0.00026579 | TDB |
period | 1650.724289724467 4.52 | 2.4592e-05 6.733e-08 | d yr |
n | .2180860863567289 | 3.249e-09 | deg/d |
Q | 2.876543262504927 | 2.8569e-08 | au |
|
| | Orbit Determination Parameters
Additional Information
|